Tracking 20093 objects as of 15-Dec-2019
HD Live streaming from Space Station
objects crossing your sky now

COSMOS 2251 DEB

Track COSMOS 2251 DEB now!
10-day predictions


NORAD ID: 35446
Int'l Code: 1993-036AKQ
Perigee: 670.1 km
Apogee: 780.2 km
Inclination: 74.0 °
Period: 99.2 minutes
Semi major axis: 7096 km
RCS: 0.0088 m2 (small)
Launch date: June 16, 1993
Source: Commonwealth of Independent States (former USSR) (CIS)
Launch site: PLESETSK MISSILE AND SPACE COMPLEX (PKMTR)

Note: This is SATELLITE DEBRIS
aabbcc
Your satellite tracking list
Your tracking list is empty




NASA's NSSDC Master Catalog

Two Line Element Set (TLE):
1 35446U 93036AKQ 19348.77527854 +.00000022 +00000-0 +12284-4 0  9998
2 35446 074.0460 128.2876 0077561 082.1388 278.8569 14.52338542562000
Source of the keplerian elements: AFSPC